Location: Lourdes
(43.1000°N, 0.0500°W)
Time: 09:55:09
(UTC+00:00)

YAOGAN 6 - Pass Details

Date: 30 November 2020
Orbit: 466 x 502 km, 97.0° (Epoch: 25 January)

Event Time Altitude Azimuth Distance (km) Brightness Sun altitude
Rises 17:09:06 0° 168° (SSE) 2,567 6.4 -7.8°
Reaches altitude 10° 17:11:11 10° 169° (S) 1,685 5.5 -8.2°
Maximum altitude 17:14:49 84° 258° (WSW) 499 2.7 -8.8°
Drops below altitude 10° 17:18:26 10° 347° (NNW) 1,679 5.2 -9.4°
Sets 17:20:30 0° 348° (NNW) 2,558 6.1 -9.7°
